Weather History for Seward, AK

Change the Weather History Date:

Sunday, April 22, 2012

  Actual Average Record
Temperature  
Mean Temperature 37 °F -  
Max Temperature 46 °F 46 °F 55 °F (1979)
Min Temperature 28 °F 33 °F 23 °F (1972)
Degree Days  
Heating Degree Days 28    
Moisture  
Dew Point 31 °F    
Average Humidity 78    
Maximum Humidity 92    
Minimum Humidity 63    
Precipitation  
Precipitation 0.02 in - - ()
Sea Level Pressure  
Sea Level Pressure 30.03 in    
Wind  
Wind Speed 4 mph (SE)    
Max Wind Speed 13 mph    
Max Gust Speed -    
Visibility 10 miles    
Events Rain    
Averages and records for this station are not official NWS values.
T = Trace of Precipitation, MM = Missing Value Source: NWS Daily Summary

Daily Weather History Graph

Daily Weather History Graph

Search for Another Location

Airport:

Trip Planner

Search our weather history database for the weather conditions in past years. The results will help you decide how hot, cold, wet, or windy it might be!

Date:

Astronomy

Apr. 22, 2012 Rise Set
Actual Time 6:18 AM AKDT 9:35 PM AKDT
Civil Twilight 5:28 AM AKDT 10:25 PM AKDT
Nautical Twilight 4:19 AM AKDT 11:36 PM AKDT
Astronomical Twilight 2:28 AM AKDT 1:23 AM AKDT
Moon 6:27 AM AKDT (4/22) 11:58 PM AKDT (4/22)
Length of Visible Light 16h 56m
Length of Day
15h 17m
New Moon, 2% of the Moon is Illuminated
Apr 22
New Moon
Apr 29
First Quarter
May 5
Full
May 12
Last Quarter
May 20
New

Hourly Weather History & Observations

Time (AKDT) Temp. Windchill Dew Point Humidity Pressure Visibility Wind Dir Wind Speed Gust Speed Precip Events Conditions
12:53 AM 33.1 °F 30.0 °F 30.0 °F 89% 30.02 in 10.0 mi North 3.5 mph - N/A   Partly Cloudy
1:53 AM 32.0 °F - 28.9 °F 88% 30.03 in 10.0 mi Calm Calm - N/A   Clear
2:53 AM 30.0 °F 25.2 °F 28.0 °F 92% 30.03 in 10.0 mi NNW 4.6 mph - N/A   Clear
3:53 AM 30.0 °F 26.5 °F 26.1 °F 85% 30.03 in 10.0 mi NNE 3.5 mph - N/A   Clear
4:53 AM 28.9 °F 25.2 °F 26.1 °F 89% 30.02 in 10.0 mi ENE 3.5 mph - N/A   Clear
5:53 AM 28.9 °F 25.2 °F 26.1 °F 89% 30.02 in 10.0 mi NNW 3.5 mph - N/A   Clear
6:53 AM 28.9 °F - 25.0 °F 85% 30.02 in 10.0 mi Calm Calm - N/A   Clear
7:53 AM 30.0 °F - 27.0 °F 88% 30.03 in 10.0 mi Calm Calm - N/A   Clear
8:53 AM 36.0 °F - 30.0 °F 79% 30.03 in 10.0 mi Calm Calm - N/A   Clear
9:53 AM 39.0 °F 36.8 °F 30.9 °F 73% 30.03 in 10.0 mi SE 3.5 mph - N/A   Partly Cloudy
10:53 AM 39.9 °F 37.8 °F 30.9 °F 70% 30.03 in 10.0 mi South 3.5 mph - N/A   Overcast
11:53 AM 41.0 °F 38.0 °F 32.0 °F 70% 30.04 in 10.0 mi South 4.6 mph - N/A   Mostly Cloudy
12:53 PM 45.0 °F 41.8 °F 33.1 °F 63% 30.04 in 10.0 mi South 5.8 mph - N/A   Scattered Clouds
1:53 PM 45.0 °F 41.2 °F 35.1 °F 68% 30.04 in 10.0 mi South 6.9 mph - N/A   Scattered Clouds
2:53 PM 46.0 °F 42.5 °F 34.0 °F 63% 30.04 in 10.0 mi South 6.9 mph - N/A   Scattered Clouds
3:53 PM 45.0 °F 39.7 °F 34.0 °F 65% 30.04 in 10.0 mi SSE 10.4 mph - N/A   Clear
4:53 PM 44.1 °F 37.7 °F 35.1 °F 71% 30.04 in 10.0 mi SSE 12.7 mph - N/A   Mostly Cloudy
5:53 PM 43.0 °F 38.2 °F 35.1 °F 74% 30.04 in 10.0 mi SSE 8.1 mph - 0.00 in Rain Light Rain
6:53 PM 43.0 °F 39.5 °F 33.1 °F 68% 30.03 in 10.0 mi SSE 5.8 mph - 0.00 in   Mostly Cloudy
7:53 PM 42.1 °F 37.1 °F 34.0 °F 73% 30.03 in 10.0 mi SSE 8.1 mph - N/A   Mostly Cloudy
8:53 PM 41.0 °F 34.3 °F 33.1 °F 73% 30.03 in 10.0 mi SE 11.5 mph - N/A   Overcast
9:53 PM 39.9 °F 35.8 °F 34.0 °F 79% 30.03 in 10.0 mi SE 5.8 mph - N/A   Overcast
10:24 PM 39.2 °F 35.9 °F 33.8 °F 81% 30.03 in 8.0 mi ESE 4.6 mph - 0.00 in Rain Light Rain
10:46 PM 39.2 °F - 33.8 °F 81% 30.03 in 8.0 mi Calm Calm - 0.02 in Rain Light Rain
10:53 PM 37.9 °F - 34.0 °F 86% 30.03 in 10.0 mi Calm Calm - 0.02 in Rain Light Rain
11:28 PM 37.4 °F 34.9 °F 33.8 °F 87% 30.02 in 10.0 mi North 3.5 mph - 0.00 in   Overcast